Queretaro, Mexico

3:33 AM CDT on August 24, 2016 (GMT -0500)
Ing F. Espinoza Gutierrez International

Weather History for MMQT - April, 2013

Change the Weather History Date:

Friday, April 5, 2013

  Actual Average Record
Temperature  
Mean Temperature 69 °F -  
Max Temperature 86 °F 80 °F 89 °F (1998)
Min Temperature 52 °F 53 °F 42 °F (2006)
Cooling Degree Days 4    
Growing Degree Days 19 (Base 50)    
Moisture  
Dew Point 44 °F    
Average Humidity 47    
Maximum Humidity 70    
Minimum Humidity 9    
Precipitation  
Precipitation 0.00 in - - ()
Sea Level Pressure  
Sea Level Pressure 30.22 in    
Wind  
Wind Speed 9 mph ()    
Max Wind Speed 22 mph    
Max Gust Speed -    
Visibility 8.0 miles    
Events      
Averages and records for this station are not official NWS values.
T = Trace of Precipitation, MM = Missing Value Source: Averaged Metar Reports

Daily Weather History Graph

Daily Weather History Graph

Search for Another Location

Airport or City:

Trip Planner

Search our weather history database for the weather conditions in past years. The results will help you decide how hot, cold, wet, or windy it might be!

Date:

Astronomy

Apr. 05, 2013 Rise Set
Actual Time 6:30 AM CST 6:56 PM CST
Civil Twilight 6:08 AM CST 7:18 PM CST
Nautical Twilight 5:42 AM CST 7:44 PM CST
Astronomical Twilight 5:15 AM CST 8:11 PM CST
Moon 3:03 AM CST (4/5) 2:54 PM CST (4/5)
Length of Visible Light 13h 10m
Length of Day
12h 26m
Waning Crescent, 23% of the Moon is Illuminated
Apr 5
Waning Crescent
Apr 10
New
Apr 18
First Quarter
Apr 25
Full
May 2
Last Quarter

Hourly Weather History & Observations

Time (CST) Temp. Dew Point Humidity Pressure Visibility Wind Dir Wind Speed Gust Speed Precip Events Conditions
12:45 AM 57.2 °F 39.2 °F 51% 30.34 in 7.0 mi East 6.9 mph - N/A   Clear
1:45 AM 51.8 °F 39.2 °F 62% 30.36 in 7.0 mi East 6.9 mph - N/A   Clear
2:40 AM 55 °F 46 °F 63% 29.90 in 6 mi East 6.7 mph - -  
2:45 AM 51.8 °F 39.2 °F 62% 30.36 in 7.0 mi East 6.9 mph - N/A   Clear
3:45 AM 51.8 °F 39.2 °F 62% 30.36 in 7.0 mi ENE 6.9 mph - N/A   Clear
4:45 AM 51.8 °F 39.2 °F 62% 30.36 in 8.0 mi ENE 9.2 mph - N/A   Clear
5:45 AM 54 °F 47 °F 70% 29.96 in 6 mi East 8.9 mph - -   Scattered Clouds
5:45 AM 55.4 °F 42.8 °F 63% 30.36 in 8.0 mi East 9.2 mph - N/A   Overcast
6:45 AM 57.2 °F 46.4 °F 67% 30.38 in 8.0 mi ENE 10.4 mph - N/A   Overcast
7:45 AM 59.0 °F 46.4 °F 63% 30.36 in 4.0 mi ENE 17.3 mph - N/A   Mostly Cloudy
8:40 AM 60 °F 47 °F 51% 30.06 in 16 mi East 22.4 mph - -   Scattered Clouds
8:45 AM 60.8 °F 42.8 °F 52% 30.36 in 4.0 mi East 11.5 mph - N/A   Scattered Clouds
9:45 AM 64.4 °F 46.4 °F 52% 30.38 in 4.0 mi East 9.2 mph - N/A   Scattered Clouds
11:40 AM 73 °F 46 °F 28% 30.02 in 16 mi ENE 17.9 mph - -  
11:45 AM 71.6 °F 46.4 °F 41% 30.39 in 7.0 mi East 9.2 mph - N/A   Scattered Clouds
12:45 PM 71.6 °F 46.4 °F 41% 30.36 in 7.0 mi East 11.5 mph - N/A   Scattered Clouds
1:45 PM 77.0 °F 41.0 °F 28% 30.32 in 7.0 mi Calm Calm - N/A   Scattered Clouds
2:40 PM 84 °F 41 °F 13% 29.81 in 16 mi ENE 11.2 mph - -   Scattered Clouds
2:45 PM 78.8 °F 39.2 °F 24% 30.28 in 7.0 mi NNE 6.9 mph - N/A   Scattered Clouds
3:45 PM 80.6 °F 42.8 °F 26% 30.24 in 7.0 mi ESE 6.9 mph - N/A   Partly Cloudy
4:45 PM 80.6 °F 42.8 °F 26% 30.20 in 7.0 mi ESE 6.9 mph - N/A   Scattered Clouds
5:40 PM 83 °F 33 °F 9% 29.62 in 16 mi West 13.4 mph - -   Scattered Clouds
5:45 PM 80.6 °F 42.8 °F 26% 30.18 in 7.0 mi SSE 4.6 mph - N/A   Scattered Clouds
6:45 PM 75.2 °F 50.0 °F 41% 30.20 in 7.0 mi NNE 15.0 mph - N/A   Scattered Clouds
7:45 PM 71.6 °F 50.0 °F 46% 30.24 in 7.0 mi NE 15.0 mph - N/A   Scattered Clouds
8:45 PM 68.0 °F 51.8 °F 56% 30.26 in 7.0 mi East 15.0 mph - N/A   Scattered Clouds
9:50 PM 64.4 °F 48.2 °F 56% 30.28 in 7.0 mi East 9.2 mph - N/A   Scattered Clouds
10:47 PM 64.4 °F 48.2 °F 56% 30.29 in 7.0 mi ENE 9.2 mph - N/A   Scattered Clouds
11:50 PM 59.0 °F 46.4 °F 63% 30.29 in 7.0 mi East 11.5 mph - N/A   Scattered Clouds